KC3AWA Weather Reports


time (UTC)temp
C
wind
direction
speed
KPH
gust
KPH
rain 1hr
cm
rain 24hr
cm
rain mn
cm
humidity
%
barometer
mb
20260504001855 12 292 9.7 14.5 0.00 0.00 0.00 45 1013.2
20260504001352 12 247 4.8 6.4 0.00 0.00 0.00 46 1013.1
20260504000849 12 203 1.6 1.6 0.00 0.00 0.00 46 1013.2
20260504000346 12 224 4.8 9.7 0.00 0.00 0.00 46 1013.2
20260503235844 12 217 1.6 1.6 0.00 0.00 0.00 45 1013.3
20260503235341 12 203 6.4 9.7 0.00 0.00 0.00 43 1013.2
20260503234838 12 183 9.7 11.3 0.00 0.00 0.00 43 1013.2
20260503234336 12 313 3.2 4.8 0.00 0.00 0.00 43 1013.1
20260503233834 12 181 1.6 3.2 0.00 0.00 0.00 43 1013.2
20260503233329 12 199 12.9 16.1 0.00 0.00 0.00 42 1013.1
20260503232826 12 328 3.2 3.2 0.00 0.00 0.00 43 1013.2
20260503232323 12 247 3.2 4.8 0.00 0.00 0.00 44 1013.2
20260503231821 13 242 1.6 3.2 0.00 0.00 0.00 41 1013.4
20260503231318 13 213 1.6 4.8 0.00 0.00 0.00 43 1013.1
20260503230814 13 204 1.6 1.6 0.00 0.00 0.00 42 1013.3
20260503230311 13 195 6.4 11.3 0.00 0.00 0.00 40 1013.3
20260503225809 13 20 1.6 1.6 0.00 0.00 0.00 41 1013.3
20260503225304 13 251 9.7 11.3 0.00 0.00 0.00 39 1013.2
20260503224801 13 226 9.7 11.3 0.00 0.00 0.00 39 1013.2
20260503224258 13 218 4.8 6.4 0.00 0.00 0.00 42 1013.3
20260503223756 13 175 8.0 9.7 0.00 0.00 0.00 38 1013.6
20260503223253 13 245 3.2 4.8 0.00 0.00 0.00 40 1013.4
20260503222749 13 235 3.2 3.2 0.00 0.00 0.00 38 1013.2
20260503222247 14 203 6.4 9.7 0.00 0.00 0.00 38 1013.0
20260503221746 14 184 12.9 22.5 0.00 0.00 0.00 39 1013.1
20260503221243 14 231 4.8 4.8 0.00 0.00 0.00 38 1013.1
20260503220739 14 184 6.4 6.4 0.00 0.00 0.00 38 1013.3
20260503220236 15 204 9.7 9.7 0.00 0.00 0.00 38 1013.1
20260503215733 15 190 6.4 6.4 0.00 0.00 0.00 37 1013.1
20260503215230 15 183 11.3 14.5 0.00 0.00 0.00 35 1013.1
20260503214728 15 277 3.2 3.2 0.00 0.00 0.00 38 1013.0
20260503214225 14 250 8.0 9.7 0.00 0.00 0.00 38 1013.1
20260503213723 15 118 1.6 1.6 0.00 0.00 0.00 40 1013.0
20260503213220 15 167 8.0 11.3 0.00 0.00 0.00 36 1013.0
20260503212716 15 254 4.8 4.8 0.00 0.00 0.00 37 1013.0
20260503212214 14 245 3.2 4.8 0.00 0.00 0.00 37 1013.0
20260503211712 14 252 12.9 14.5 0.00 0.00 0.00 37 1013.0
20260503211208 15 187 9.7 14.5 0.00 0.00 0.00 37 1013.1
20260503210704 15 217 3.2 6.4 0.00 0.00 0.00 38 1013.2
20260503210201 14 190 8.0 17.7 0.00 0.00 0.00 38 1013.0
20260503205656 13 145 6.4 9.7 0.00 0.00 0.00 40 1013.2
20260503205152 13 130 11.3 14.5 0.00 0.00 0.00 38 1013.1
20260503204649 15 208 6.4 6.4 0.00 0.00 0.00 36 1013.4
20260503204147 15 268 6.4 9.7 0.00 0.00 0.00 37 1013.3
20260503203644 15 232 6.4 9.7 0.00 0.00 0.00 38 1013.2
20260503203141 15 222 6.4 9.7 0.00 0.00 0.00 37 1013.4
20260503202638 16 330 1.6 1.6 0.00 0.00 0.00 35 1013.2
20260503202137 15 159 3.2 6.4 0.00 0.00 0.00 39 1013.7
20260503201634 15 126 9.7 17.7 0.00 0.00 0.00 39 1013.6
20260503201131 14 219 8.0 9.7 0.00 0.00 0.00 40 1013.6
20260503200627 15 226 11.3 14.5 0.00 0.00 0.00 37 1013.8
20260503200124 14 206 12.9 14.5 0.00 0.00 0.00 37 1013.9
20260503195621 14 256 8.0 9.7 0.00 0.00 0.00 37 1013.7
20260503195118 14 225 14.5 22.5 0.00 0.00 0.00 37 1013.9
20260503194615 14 180 0.0 1.6 0.00 0.00 0.00 39 1014.0
20260503194110 15 252 1.6 3.2 0.00 0.00 0.00 41 1014.2
20260503193607 13 203 9.7 12.9 0.00 0.00 0.00 38 1014.4
20260503193102 13 247 8.0 9.7 0.00 0.00 0.00 40 1014.4
20260503192558 13 179 12.9 14.5 0.00 0.00 0.00 38 1014.3
20260503192054 13 134 3.2 4.8 0.00 0.00 0.00 41 1014.3
20260503191551 14 234 6.4 12.9 0.00 0.00 0.00 38 1014.4
20260503191048 15 289 3.2 3.2 0.00 0.00 0.00 38 1014.3
20260503190545 14 253 3.2 4.8 0.00 0.00 0.00 42 1014.7
20260503190042 13 295 1.6 3.2 0.00 0.00 0.00 40 1014.7
20260503185539 13 269 1.6 1.6 0.00 0.00 0.00 40 1014.8
20260503185038 13 287 3.2 6.4 0.00 0.00 0.00 40 1014.7
20260503184535 13 211 4.8 4.8 0.00 0.00 0.00 39 1014.8
20260503184031 14 226 11.3 17.7 0.00 0.00 0.00 40 1014.8
20260503183528 14 192 14.5 17.7 0.00 0.00 0.00 41 1014.7
20260503183025 13 113 6.4 9.7 0.00 0.00 0.00 39 1015.0
20260503182524 12 192 6.4 9.7 0.00 0.00 0.00 40 1015.0
20260503182021 12 211 20.9 35.4 0.00 0.00 0.00 39 1015.1
20260503181518 12 348 3.2 4.8 0.00 0.00 0.00 40 1015.0
20260503181014 13 196 4.8 4.8 0.00 0.00 0.00 39 1015.3
20260503180512 13 150 8.0 9.7 0.00 0.00 0.00 43 1015.2
20260503180009 13 340 6.4 11.3 0.00 0.00 0.00 38 1015.5
20260503175506 13 186 8.0 12.9 0.00 0.00 0.00 39 1015.4
20260503175003 13 282 3.2 4.8 0.00 0.00 0.00 37 1015.2
20260503174501 14 289 4.8 6.4 0.00 0.00 0.00 37 1015.2
20260503173956 13 264 3.2 3.2 0.00 0.00 0.00 42 1015.4
20260503173452 13 172 6.4 6.4 0.00 0.00 0.00 39 1015.5
20260503172948 13 254 14.5 16.1 0.00 0.00 0.00 40 1015.4
20260503172446 13 35 8.0 14.5 0.00 0.00 0.00 43 1015.4
20260503171942 12 192 6.4 6.4 0.00 0.00 0.00 44 1015.4
20260503171439 13 19 6.4 9.7 0.00 0.00 0.00 39 1015.6
20260503170937 13 210 4.8 9.7 0.00 0.00 0.00 37 1015.8
20260503170433 12 80 4.8 6.4 0.00 0.00 0.00 40 1015.6
20260503150825 11 176 6.4 11.3 0.00 0.00 0.00 44 1016.6
20260503150321 10 134 3.2 3.2 0.00 0.00 0.00 45 1016.7
20260503140245 8 276 3.2 4.8 0.00 0.00 0.00 49 1016.8
20260503131215 7 179 4.8 4.8 0.00 0.00 0.00 59 1017.0
20260503130713 7 356 0.0 0.0 0.00 0.00 0.00 61 1017.0
20260503130210 7 282 0.0 1.6 0.00 0.00 0.00 64 1017.3
20260503120135 3 257 1.6 1.6 0.00 0.00 0.00 79 1016.8
20260503110603 0 187 0.0 1.6 0.00 0.00 0.00 89 1016.6
20260503090450 -1 237 0.0 0.0 0.00 0.00 0.00 93 1016.1
20260503081416 -1 224 0.0 0.0 0.00 0.00 0.00 91 1016.2
20260503080913 -1 225 0.0 0.0 0.00 0.00 0.00 90 1016.2
20260503080410 -1 202 0.0 1.6 0.00 0.00 0.00 90 1016.2
20260503072846 0 262 0.0 0.0 0.00 0.00 0.00 88 1016.2
20260503072343 0 205 1.6 1.6 0.00 0.00 0.00 87 1016.1
20260503071840 0 273 0.0 0.0 0.00 0.00 0.00 87 1016.2
20260503071337 0 221 3.2 3.2 0.00 0.00 0.00 88 1016.1
20260503070833 0 271 0.0 1.6 0.00 0.00 0.00 87 1016.2
20260503070332 0 267 0.0 1.6 0.00 0.00 0.00 87 1016.1
20260503060302 0 269 0.0 0.0 0.00 0.00 0.00 83 1016.6
20260503054749 0 289 0.0 0.0 0.00 0.00 0.00 82 1016.5
20260503054246 0 243 0.0 1.6 0.00 0.00 0.00 83 1016.4
20260503053744 0 248 0.0 0.0 0.00 0.00 0.00 83 1016.5
20260503053243 0 234 1.6 1.6 0.00 0.00 0.00 84 1016.4
20260503052738 0 243 1.6 1.6 0.00 0.00 0.00 83 1016.5
20260503052235 0 190 0.0 0.0 0.00 0.00 0.00 83 1016.6
20260503051730 0 255 0.0 0.0 0.00 0.00 0.00 83 1016.6
20260503051228 0 272 0.0 0.0 0.00 0.00 0.00 83 1016.6
20260503050724 0 272 0.0 0.0 0.00 0.00 0.00 83 1016.7
20260503050221 0 265 0.0 0.0 0.00 0.00 0.00 82 1016.7
20260503045719 0 266 0.0 0.0 0.00 0.00 0.00 83 1016.8
20260503045216 0 268 0.0 0.0 0.00 0.00 0.00 83 1016.6
20260503044712 0 276 0.0 0.0 0.00 0.00 0.00 83 1016.5
20260503044210 0 279 0.0 1.6 0.00 0.00 0.00 82 1016.5
20260503043706 0 279 0.0 0.0 0.00 0.00 0.00 82 1016.8
20260503043204 0 283 0.0 0.0 0.00 0.00 0.00 81 1016.7
20260503042659 0 276 0.0 0.0 0.00 0.00 0.00 82 1016.8
20260503042156 1 277 0.0 0.0 0.00 0.00 0.00 81 1016.6
20260503041652 1 277 0.0 0.0 0.00 0.00 0.00 79 1016.6
20260503041150 1 276 0.0 0.0 0.00 0.00 0.00 79 1016.7
20260503040648 1 276 0.0 0.0 0.00 0.00 0.00 79 1016.8
20260503040145 1 277 0.0 0.0 0.00 0.00 0.00 78 1016.8
20260503035641 1 248 0.0 1.6 0.00 0.13 0.13 79 1016.7
20260503035139 1 260 0.0 0.0 0.00 0.13 0.13 78 1016.7
20260503034637 1 204 1.6 1.6 0.00 0.13 0.13 77 1016.7
20260503034134 1 321 0.0 1.6 0.00 0.13 0.13 77 1016.6
20260503033630 1 267 0.0 0.0 0.00 0.13 0.13 78 1016.8
20260503033128 1 257 0.0 0.0 0.00 0.13 0.13 77 1016.8
20260503032626 2 257 0.0 0.0 0.00 0.13 0.13 77 1016.7
20260503032125 1 261 0.0 0.0 0.00 0.13 0.13 76 1016.9
20260503031622 1 254 0.0 0.0 0.00 0.13 0.13 75 1016.9
20260503031119 1 250 0.0 0.0 0.00 0.13 0.13 78 1016.9
20260503030615 2 244 0.0 0.0 0.00 0.13 0.13 76 1016.9
20260503030112 2 248 0.0 0.0 0.00 0.13 0.13 76 1016.9
20260503025609 2 227 0.0 0.0 0.00 0.13 0.13 75 1017.0
20260503025107 2 266 0.0 1.6 0.00 0.13 0.13 76 1017.0
20260503024603 2 264 0.0 1.6 0.00 0.13 0.13 77 1017.1
20260503024100 2 239 0.0 1.6 0.00 0.13 0.13 77 1017.0
20260503023557 2 269 0.0 0.0 0.00 0.13 0.13 76 1017.1
20260503023054 2 268 0.0 0.0 0.00 0.13 0.13 74 1016.9
20260503022550 2 271 0.0 0.0 0.00 0.13 0.13 76 1017.1
20260503022045 2 268 0.0 0.0 0.00 0.13 0.13 77 1017.1
20260503021542 2 124 0.0 0.0 0.00 0.13 0.13 77 1017.2
20260503021039 2 250 0.0 1.6 0.00 0.13 0.13 77 1017.2
20260503020536 2 254 0.0 0.0 0.00 0.13 0.13 75 1017.2
20260503020033 2 244 1.6 1.6 0.00 0.13 0.13 74 1017.2
20260503015529 2 268 0.0 1.6 0.00 0.13 0.13 75 1017.1
20260503015027 2 290 0.0 0.0 0.00 0.13 0.13 73 1017.2
20260503014522 2 289 0.0 1.6 0.00 0.13 0.13 75 1016.9
20260503014021 2 289 0.0 1.6 0.00 0.13 0.13 72 1017.0
20260503013518 2 279 0.0 0.0 0.00 0.13 0.13 73 1017.1
20260503013015 2 286 0.0 0.0 0.00 0.13 0.13 72 1017.0
20260503012513 2 355 0.0 0.0 0.00 0.13 0.13 69 1016.9
20260503012009 2 301 0.0 0.0 0.00 0.13 0.13 69 1017.0
20260503011506 3 349 0.0 0.0 0.00 0.13 0.13 69 1016.9
20260503011003 3 224 0.0 0.0 0.00 0.13 0.13 69 1016.7
20260503010459 3 189 1.6 1.6 0.00 0.13 0.13 66 1017.0
20260503005957 3 54 1.6 1.6 0.00 0.13 0.13 68 1016.9
20260503005453 3 234 1.6 1.6 0.00 0.13 0.13 69 1017.0
20260503004950 3 36 0.0 0.0 0.00 0.13 0.13 68 1016.8
20260503004447 3 36 0.0 0.0 0.00 0.13 0.13 67 1016.7
20260503003945 3 307 0.0 0.0 0.00 0.13 0.13 67 1016.8
20260503003441 3 15 0.0 0.0 0.00 0.13 0.13 65 1016.7
20260503002938 3 293 0.0 1.6 0.00 0.13 0.13 65 1016.8
20260503002435 3 283 0.0 0.0 0.00 0.13 0.13 65 1016.7
20260503001932 3 328 0.0 0.0 0.00 0.13 0.13 65 1016.7